Weather History for Clinton-Sherman, OK

Change the Weather History Date:

Thursday, March 29, 2012

  Actual Average Record
Temperature  
Mean Temperature 66 °F -  
Max Temperature 75 °F 63 °F 79 °F (1997)
Min Temperature 57 °F 41 °F 30 °F (2003)
Cooling Degree Days 1    
Growing Degree Days 16 (Base 50)    
Moisture  
Dew Point 61 °F    
Average Humidity 88    
Maximum Humidity 100    
Minimum Humidity 69    
Precipitation  
Precipitation 0.00 in - - ()
Sea Level Pressure  
Sea Level Pressure 29.82 in    
Wind  
Wind Speed 15 mph (South)    
Max Wind Speed 23 mph    
Max Gust Speed 28 mph    
Visibility 7 miles    
Events Fog    
Averages and records for this station are not official NWS values.
T = Trace of Precipitation, MM = Missing Value Source: NWS Daily Summary

Daily Weather History Graph

Daily Weather History Graph

Search for Another Location

Airport:

Trip Planner

Search our weather history database for the weather conditions in past years. The results will help you decide how hot, cold, wet, or windy it might be!

Date:

Astronomy

Mar. 29, 2012 Rise Set
Actual Time 7:26 AM CDT 7:56 PM CDT
Civil Twilight 7:01 AM CDT 8:21 PM CDT
Nautical Twilight 6:31 AM CDT 8:51 PM CDT
Astronomical Twilight 6:00 AM CDT 9:22 PM CDT
Moon 11:48 AM CDT (3/29) 1:38 AM CDT (3/29)
Length of Visible Light 13h 20m
Length of Day
12h 29m
Waxing Crescent, 39% of the Moon is Illuminated
Mar 29
Waxing Crescent
Mar 30
First Quarter
Apr 6
Full
Apr 13
Last Quarter
Apr 21
New

Hourly Weather History & Observations

Time (CDT) Temp. Dew Point Humidity Pressure Visibility Wind Dir Wind Speed Gust Speed Precip Events Conditions
12:53 AM 63.0 °F 62.1 °F 97% 29.85 in 7.0 mi South 17.3 mph - N/A   Clear
1:27 AM 62.6 °F 62.6 °F 100% 29.90 in 6.0 mi South 13.8 mph 23.0 mph N/A   Scattered Clouds
1:46 AM 62.6 °F 60.8 °F 94% 29.90 in 5.0 mi South 17.3 mph - N/A   Mostly Cloudy
1:53 AM 62.1 °F 61.0 °F 96% 29.85 in 5.0 mi South 17.3 mph - N/A   Mostly Cloudy
2:42 AM 62.6 °F 60.8 °F 94% 29.89 in 5.0 mi South 13.8 mph - N/A   Overcast
2:53 AM 62.1 °F 61.0 °F 96% 29.84 in 5.0 mi South 13.8 mph - N/A   Mostly Cloudy
3:53 AM 60.1 °F 59.0 °F 96% 29.83 in 8.0 mi South 13.8 mph - N/A   Clear
4:53 AM 60.1 °F 57.9 °F 93% 29.83 in 8.0 mi South 11.5 mph - N/A   Clear
5:53 AM 59.0 °F 57.9 °F 96% 29.82 in 6.0 mi SSW 12.7 mph - N/A   Clear
6:53 AM 57.9 °F 57.0 °F 97% 29.81 in 6.0 mi South 11.5 mph - N/A   Clear
7:35 AM 57.2 °F 57.2 °F 100% 29.87 in 2.5 mi South 11.5 mph - N/A   Partly Cloudy
7:38 AM 57.2 °F 57.2 °F 100% 29.87 in 0.8 mi South 11.5 mph - N/A   Mist
7:45 AM 57.2 °F 57.2 °F 100% 29.87 in 0.2 mi SSW 9.2 mph - N/A Fog Fog
7:53 AM 57.0 °F 57.0 °F 100% 29.83 in 0.2 mi South 9.2 mph - N/A Fog Fog
8:02 AM 57.2 °F 57.2 °F 100% 29.87 in 1.0 mi SSW 9.2 mph - N/A   Mist
8:08 AM 57.2 °F 57.2 °F 100% 29.87 in 3.0 mi SSW 11.5 mph - N/A   Mostly Cloudy
8:16 AM 57.2 °F 57.2 °F 100% 29.87 in 4.0 mi SSW 12.7 mph - N/A   Scattered Clouds
8:53 AM 60.1 °F 59.0 °F 96% 29.84 in 5.0 mi SSW 13.8 mph - N/A   Clear
9:53 AM 63.0 °F 61.0 °F 93% 29.83 in 8.0 mi SW 12.7 mph - N/A   Clear
10:53 AM 68.0 °F 63.0 °F 84% 29.83 in 10.0 mi South 12.7 mph - N/A   Clear
11:53 AM 71.1 °F 64.0 °F 78% 29.82 in 10.0 mi South 11.5 mph - N/A   Clear
12:53 PM 73.0 °F 64.9 °F 76% 29.80 in 10.0 mi South 13.8 mph - N/A   Clear
1:53 PM 75.0 °F 64.9 °F 71% 29.77 in 10.0 mi South 17.3 mph - N/A   Clear
2:53 PM 75.9 °F 66.0 °F 71% 29.76 in 10.0 mi SSE 17.3 mph 26.5 mph N/A   Clear
3:53 PM 75.9 °F 64.9 °F 69% 29.73 in 10.0 mi SSE 23.0 mph - N/A   Clear
4:53 PM 75.0 °F 64.9 °F 71% 29.72 in 10.0 mi South 19.6 mph 27.6 mph N/A   Clear
5:53 PM 75.0 °F 64.0 °F 69% 29.71 in 10.0 mi SSE 20.7 mph - N/A   Clear
6:53 PM 73.0 °F 63.0 °F 71% 29.71 in 10.0 mi SSE 19.6 mph 27.6 mph N/A   Clear
7:53 PM 70.0 °F 62.1 °F 76% 29.71 in 10.0 mi SSE 18.4 mph - N/A   Clear
8:53 PM 68.0 °F 60.1 °F 76% 29.74 in 10.0 mi SE 19.6 mph - N/A   Clear
9:53 PM 66.0 °F 60.1 °F 81% 29.76 in 10.0 mi SE 17.3 mph - N/A   Clear
10:53 PM 64.0 °F 60.1 °F 87% 29.76 in 10.0 mi South 16.1 mph - N/A   Clear
11:53 PM 64.9 °F 59.0 °F 81% 29.84 in 10.0 mi NE 10.4 mph 24.2 mph N/A   Scattered Clouds